Location: Unspecified
(0.0000°N, 0.0000°E)
Time: 11:38:36
(UTC+00:00)

N. Korean satellite - Pass Details

Date: 14 August 2017
Orbit: 462 x 515 km, 97.2° (Epoch: 22 August)

Event Time Altitude Azimuth Distance (km) Brightness Sun altitude
Rises 18:39:26 0° 174° (S) 2,487 10.0 -8.4°
Reaches altitude 10° 18:41:29 10° 177° (S) 1,612 9.0 -8.9°
Maximum altitude 18:44:54 63° 259° (W) 521 7.0 -9.8°
Drops below altitude 10° 18:48:20 10° 341° (NNW) 1,618 9.7 -10.6°
Sets 18:50:24 0° 344° (NNW) 2,498 10.6 -11.1°
